Regional Weather Roundup
Issued by NWS Northern Indiana

Home | Current Version | Previous Version | Graphics & Text | Print | Product List | Glossary On
Versions: 1 2 3 4 5 6 7 8 9 10 11 12 13 14 15 16 17 18 19 20 21 22 23 24 25 26 27 28 29 30 31 32 33 34 35 36 37 38 39 40 41 42 43 44 45 46 47 48 49 50
000
ASUS43 KIWX 260200
RWRIWX

KIWX WEATHER ROUNDUP
NATIONAL WEATHER SERVICE NORTHERN INDIANA
1000 PM EDT THU AUG 25 2016

NOTE: "FAIR" INDICATES FEW OR NO CLOUDS BELOW 12,000 FEET WITH NO
SIGNIFICANT WEATHER AND/OR OBSTRUCTIONS TO VISIBILITY.

* THESE STATIONS ARE NOT UNDER NWS QUALITY CONTROL. THEY ALSO MAY NOT
  REPORT WEATHER SUCH AS PRECIPITATION OR FOG.

INZ001>027-260300-
NORTHERN INDIANA

CITY           SKY/WX    TMP DP  RH WIND       PRES   REMARKS
GARY*          PTCLDY    72  72 100 CALM      30.07R
KNOX*          CLOUDY    73  57  56 SW5       30.06R
SOUTH BEND     CLEAR     70  68  93 N3        30.07R
GOSHEN         PTCLDY    73  68  84 CALM      30.06R
MONTICELLO*    PTCLDY    74  69  85 CALM      30.05R
ANGOLA*        CLEAR     73  66  78 NW3       30.06R
FORT WAYNE     PTCLDY    74  70  87 SW6       30.06R
PERU/GRISSOM   CLOUDY    74  73  94 SW3       30.05R

$$
INZ028>050-260300-
CENTRAL INDIANA

CITY           SKY/WX    TMP DP  RH WIND       PRES   REMARKS
LAFAYETTE      CLOUDY    74  74 100 CALM      30.05R
MUNCIE*        CLEAR     77  71  82 W5        30.07R
INDIANAPOLIS   PTCLDY    80  72  76 NW3       30.06R

$$
MIZ043>046-050>051-056>058-064>065-071>073-077>080-260300-
SOUTHWEST LOWER MICHIGAN

CITY           SKY/WX    TMP DP  RH WIND       PRES   REMARKS
BATTLE CREEK   CLEAR     66  65  96 W5        30.06R
BENTON HARBOR  CLOUDY    70  66  87 CALM      30.05R
COLDWATER*     CLEAR     70  67  90 NW5       30.07R
HILLSDALE*     CLEAR     71  67  87 W3        30.06R
HOLLAND        CLEAR     66  62  87 SW5       30.05R
GRAND RAPIDS   MOCLDY    70  60  70 W7        30.05R
KALAMAZOO      CLOUDY    70  61  73 SW3       30.06R
STURGIS*       CLEAR     70  67  91 N3        30.06R
THREE RIVERS*  FAIR      69  65  86 CALM      30.07R

$$
OHZ001>008-015>018-024>025-260300-
NORTHWEST OHIO

CITY           SKY/WX    TMP DP  RH WIND       PRES   REMARKS
DEFIANCE       CLEAR     75  69  81 CALM      30.05R
FINDLAY        CLEAR     76  68  76 W6        30.04R
TOLEDO EXPRESS CLEAR     76  70  82 SW6       30.03R
TOLEDO METCALF CLEAR     76  70  82 W6        30.03R
LIMA           CLEAR     75  71  87 W6        30.06R

$$
AND FOR LAKE MICHIGAN COASTAL AND OPEN LAKE BUOY OBSERVATIONS

STATION/POSITION TEMP    WIND        PRES    VSBY  WAVE
                 AIR SEA DIR/SP/G                  HT/PER
                 (F)     (DEG/KT/KT) (MB)    (MI)  (FT/S)
CALUMET HARBOR    72     330/  2/  2 1017.0R
MICHIGAN CITY     74      30/  4/  4   N/A
BURNS HARBOR      74      60/  6/ 10 1017.6R
SAINT JOSEPH      73      CALM  /  1 1017.3R
SOUTH LAKE BUOY   73 75  220/  4/  4 1016.4          1/ 4
4 MI NW BRIDGMAN  73 75  360/  2/  4 1016.9R         1/ 3
MICHIGAN CITY     74 74   80/  4/  4   N/A           1

$$
&&




USA.gov is the U.S. government's official web portal to all federal, state and local government web resources and services.